Regional Weather Roundup
Issued by NWS

Home | Current Version | Previous Version | Text Only | Print | Product List | Glossary On
Versions: 1 2 3 4 5 6 7 8 9 10 11 12 13 14 15 16 17 18 19 20 21 22 23 24 25 26 27
000
ASUS45 KREV 261010
RWRNV
NEVADA REGIONAL WEATHER ROUNDUP
NATIONAL WEATHER SERVICE RENO NV
300 AM PDT MON SEP 26 2016

NOTE: "FAIR" INDICATES FEW OR NO CLOUDS BELOW 12,000 FEET WITH NO
SIGNIFICANT WEATHER AND/OR OBSTRUCTIONS TO VISIBILITY.

NVZ001-003-004-261100-
WESTERN NEVADA

CITY           SKY/WX    TMP DP  RH WIND       PRES   REMARKS
RENO           CLEAR     53  31  42 CALM      30.33S
CARSON CITY    FAIR      45  23  42 CALM      30.36F
MINDEN         FAIR      37  19  48 CALM      30.36S
PYRAMID LAKE     N/A     68 N/A N/A SW6         N/A
FALLON         CLEAR     49  28  44 S5        30.30S
LOVELOCK       CLEAR     44  24  45 SW5       30.30F
$$

NVZ002-CAZ072-073-261100-
NORTHERN AND CENTRAL SIERRA

CITY           SKY/WX    TMP DP  RH WIND       PRES   REMARKS
S. LAKE TAHOE  CLEAR     38  23  55 CALM      30.40F
TRUCKEE        CLEAR     34  21  60 CALM      30.40S
SQUAW VLY 8000 NOT AVBL
SUSANVILLE     CLEAR     48  28  46 W8        30.31
MAMMOTH LAKES  FAIR      42  18  39 N5        30.46F
BRIDGEPORT       N/A     33  16  49 CALM      30.44F
$$

NVZ030-031-036-261100-
NORTHERN NEVADA

CITY           SKY/WX    TMP DP  RH WIND       PRES   REMARKS
ELKO           CLEAR     44  37  76 CALM      30.41F
WINNEMUCCA     CLEAR     55  33  43 E9        30.35F
WENDOVER       CLEAR     48  41  76 CALM      30.41S
$$

NVZ035-037-261100-
CENTRAL NEVADA

CITY           SKY/WX    TMP DP  RH WIND       PRES   REMARKS
ELY            CLEAR     36  28  73 S8        30.47F
EUREKA           N/A     40  33  76 S3        30.43F
$$

NVZ013-014-261100-
SOUTH CENTRAL NEVADA

CITY           SKY/WX    TMP DP  RH WIND       PRES   REMARKS
TONOPAH        CLEAR     54  32  43 N13       30.38F
$$

NVZ017-020-022-261100-
SOUTHERN NEVADA

CITY           SKY/WX    TMP DP  RH WIND       PRES   REMARKS
LAS VEGAS      CLEAR     73  25  16 N9        30.16F
N. LAS VEGAS   CLEAR     69  29  22 NW5       30.16F
NELLIS AFB     CLEAR     72  32  22 NE9       30.14F
HENDERSON      CLEAR     66  29  24 W5        30.20S
MERCURY        CLEAR     67  25  20 NE12      30.22S
$$




USA.gov is the U.S. government's official web portal to all federal, state and local government web resources and services.